Lid_Strength_Index
21 20 20 21 21 20 21 24 19 25 26 27 25 26 26 27 27 28 29 29 30 32 34 34 34 33 34 34 34 36 35 35 33 34 34 34 32 32 32 31 30 31 30 30
22 20 21 24 22 23 23 25 26 26 28 28 30 30 30 30 28 29 30 29 29 30 32 32 33 32 30 31 32 35 35 34 33 34 34 34 32 32 33 32 32 33 31 31
24 21 21 22 25 24 25 26 25 25 26 28 29 26 27 27 25 26 28 30 32 32 32 32 33 31 34 33 35 35 35 32 31 31 31 30 30 31 30 30 33 31 31 31
24 22 26 29 25 25 26 28 27 27 27 26 27 30 31 32 29 30 30 30 30 33 35 33 35 36 35 35 34 33 31 30 29 28 28 27 28 28 29 29 29 28 28 28
24 25 27 28 26 26 25 27 28 29 29 30 31 30 30 32 35 32 34 35 34 35 35 36 35 32 36 33 34 35 30 29 28 27 27 27 26 27 27 26 26 26 24 25
24 25 26 28 26 27 28 27 27 27 28 29 30 28 28 33 35 34 34 35 33 33 35 36 31 34 35 31 31 30 27 27 25 25 25 26 25 25 24 25 23 22 22 22
23 28 27 29 27 27 24 24 26 25 27 29 28 29 31 32 31 33 33 32 31 31 31 29 29 31 29 28 28 25 24 23 23 23 23 23 23 23 23 23 22 23 22 22
26 28 27 28 27 24 27 31 29 28 29 28 29 30 31 29 29 28 29 29 28 28 27 26 27 27 26 25 23 23 22 22 22 22 21 20 21 21 21 22 23 23 24 23
29 29 31 32 31 34 33 29 32 28 32 29 30 30 29 29 31 30 28 27 25 26 25 25 25 24 24 23 22 22 22 22 22 21 20 20 20 21 21 22 23 23 23 22
29 28 31 33 34 36 36 31 33 33 32 32 32 32 32 30 28 28 27 26 26 26 26 24 23 22 22 22 21 22 23 22 21 21 21 21 20 20 20 22 23 22 22 21
30 28 31 31 35 34 36 37 35 37 33 31 31 30 30 29 28 27 25 24 24 24 23 23 22 22 22 21 22 22 22 21 21 20 21 21 20 20 20 19 19 20 19 18
25 26 29 29 30 33 31 32 32 30 30 29 28 28 27 27 26 25 24 23 23 23 22 22 22 22 21 20 21 21 21 21 21 20 21 20 20 20 14 12 10 10 9 10
28 35 35 33 35 33 29 29 28 29 28 28 27 27 26 26 24 21 21 22 22 22 21 22 22 21 20 20 20 20 21 20 20 18 19 19 19 19 19 16 11 10 9 9
33 30 28 31 28 30 27 28 27 28 27 26 26 24 24 24 23 23 23 22 22 22 22 22 21 21 19 19 19 20 20 16 17 17 17 17 17 18 17 18 19 17 13 11
31 31 30 30 29 29 29 29 28 28 27 25 24 24 24 24 24 23 22 22 22 22 22 22 22 21 20 19 19 20 19 18 18 18 18 17 17 18 18 18 18 18 16 13
30 29 28 28 27 28 28 29 28 27 25 25 25 25 24 24 24 24 24 23 25 24 22 22 22 21 20 20 20 19 19 14 13 15 16 17 17 17 16 17 17 17 17 16
28 29 28 28 27 29 29 29 28 27 26 27 27 26 26 27 27 27 26 25 25 24 23 23 23 21 20 20 20 19 18 18 14 14 15 16 16 16 16 16 16 16 16 13
31 30 30 29 29 29 28 27 28 28 29 29 28 29 29 30 29 27 26 25 26 25 24 23 21 21 20 20 20 18 18 18 17 17 17 16 16 15 15 15 15 15 15 14
29 27 28 26 29 30 31 31 31 31 30 30 31 30 30 29 28 27 26 26 26 26 21 18 15 13 15 15 12 13 14 17 16 16 16 15 14 14 14 15 15 16 15 15
29 29 30 32 34 34 32 32 32 32 29 32 32 31 29 27 26 26 25 24 22 21 17 16 14 13 13 13 10 11 12 12 13 15 16 16 16 16 15 13 12 13 13 13
30 30 31 31 31 30 30 29 29 29 27 29 29 27 26 24 23 22 21 21 19 16 14 13 14 15 15 11 13 14 14 14 13 13 13 13 13 13 13 12 12 12 12 12
33 31 30 29 29 28 27 27 27 26 25 24 23 22 22 22 20 20 19 20 18 13 14 15 16 13 11 11 15 15 16 16 16 17 17 16 15 14 14 13 13 13 12 12
26 26 24 24 24 25 26 26 24 24 24 24 22 22 22 21 21 22 22 19 17 15 15 17 13 10 9 16 19 19 17 16 15 15 15 15 14 14 14 14 13 13 13 13
23 23 23 22 24 24 24 23 23 22 24 22 21 21 21 22 22 20 19 17 15 14 16 16 13 11 11 17 16 16 15 15 15 15 14 11 13 13 13 13 13 13 13 13
23 23 23 23 23 23 23 22 22 23 22 21 20 20 21 21 23 21 20 20 16 15 18 16 14 13 16 17 17 16 17 16 16 13 15 15 14 14 14 13 13 13 13 13
23 23 23 23 23 22 22 22 25 22 21 22 21 21 21 21 21 20 20 18 18 16 19 19 18 17 18 17 16 18 17 17 17 16 13 14 14 14 13 13 13 13 12 12
23 19 24 22 21 21 22 23 24 24 22 21 26 23 21 21 21 19 18 20 20 20 20 20 19 17 17 17 18 18 17 17 15 15 16 16 16 15 14 14 13 12 12 12